Location: Newark
(34.6283°N, 36.0776°E)
Time: 00:45:15
(UTC+00:00)

A-11 Canister half - Pass Details

Date: 25 September 2019
Orbit: 1527 x 1682 km, 47.3° (Epoch: 22 October)

Event Time Altitude Azimuth Distance (km) Brightness Sun altitude
Rises 22:05:01 0° 203° (SSW) 4,667 - -55.3°
Reaches altitude 10° 22:08:18 10° 196° (SSW) 3,683 - -55.1°
Maximum altitude 22:16:40 39° 131° (SE) 2,138 - -54.5°
Exits shadow 22:23:18 17° 72° (ENE) 3,221 10.8 -53.9°
Drops below altitude 10° 22:25:08 10° 66° (ENE) 3,734 11.3 -53.8°
Sets 22:28:27 0° 59° (ENE) 4,738 12.0 -53.5°
